Wetterdaten: Samstag, 13.04.2019
Datum Zeit Temp. I. Temp. A. Boden 5 cm Feuchte A. Sonne Luftdruck Regen Wind Sonnenschein Zeit Regen
13.04.2019 00:01 21,6 C 5,5 C 4,0 C 56 % 0 % 1021 hPa 0,0 l/m 0,0 km/h (0 Bft) 0 min 0 min
13.04.2019 00:04 21,6 C 5,6 C 3,8 C 56 % 0 % 1021 hPa 0,0 l/m 4,2 km/h (1 Bft) 0 min 0 min
13.04.2019 00:07 21,6 C 5,5 C 3,8 C 57 % 0 % 1021 hPa 0,0 l/m 4,6 km/h (1 Bft) 0 min 0 min
13.04.2019 00:10 21,6 C 5,6 C 3,9 C 56 % 0 % 1021 hPa 0,0 l/m 3,2 km/h (1 Bft) 0 min 0 min
13.04.2019 00:13 21,6 C 5,6 C 3,9 C 57 % 0 % 1021 hPa 0,0 l/m 4,5 km/h (1 Bft) 0 min 0 min
13.04.2019 00:16 21,6 C 5,5 C 3,7 C 57 % 0 % 1021 hPa 0,0 l/m 7,2 km/h (2 Bft) 0 min 0 min
13.04.2019 00:19 21,6 C 5,5 C 3,7 C 57 % 0 % 1021 hPa 0,0 l/m 6,6 km/h (2 Bft) 0 min 0 min
13.04.2019 00:22 21,6 C 5,4 C 3,7 C 57 % 0 % 1021 hPa 0,0 l/m 6,8 km/h (2 Bft) 0 min 0 min
13.04.2019 00:25 21,6 C 5,4 C 3,6 C 57 % 0 % 1021 hPa 0,0 l/m 6,2 km/h (2 Bft) 0 min 0 min
13.04.2019 00:28 21,6 C 5,4 C 3,6 C 57 % 0 % 1021 hPa 0,0 l/m 0,9 km/h (0 Bft) 0 min 0 min
13.04.2019 00:31 21,6 C 5,4 C 3,8 C 57 % 0 % 1021 hPa 0,0 l/m 4,5 km/h (1 Bft) 0 min 0 min
13.04.2019 00:34 21,6 C 5,4 C 3,8 C 58 % 0 % 1021 hPa 0,0 l/m 4,6 km/h (1 Bft) 0 min 0 min
13.04.2019 00:37 21,6 C 5,4 C 3,6 C 58 % 0 % 1021 hPa 0,0 l/m 5,4 km/h (1 Bft) 0 min 0 min
13.04.2019 00:40 21,6 C 5,4 C 3,6 C 58 % 0 % 1021 hPa 0,0 l/m 5,4 km/h (1 Bft) 0 min 0 min
13.04.2019 00:43 21,6 C 5,4 C 3,7 C 58 % 0 % 1021 hPa 0,0 l/m 0,1 km/h (0 Bft) 0 min 0 min
13.04.2019 00:46 21,6 C 5,4 C 3,8 C 58 % 0 % 1021 hPa 0,0 l/m 0,1 km/h (0 Bft) 0 min 0 min
13.04.2019 00:52 21,6 C 5,3 C 3,9 C 58 % 0 % 1021 hPa 0,0 l/m 0,3 km/h (0 Bft) 0 min 0 min
13.04.2019 00:55 21,6 C 5,3 C 3,7 C 58 % 0 % 1021 hPa 0,0 l/m 0,0 km/h (0 Bft) 0 min 0 min
13.04.2019 00:58 21,6 C 5,3 C 3,5 C 58 % 0 % 1021 hPa 0,0 l/m 0,2 km/h (0 Bft) 0 min 0 min
13.04.2019 01:01 21,6 C 5,3 C 3,6 C 58 % 0 % 1021 hPa 0,0 l/m 3,3 km/h (1 Bft) 0 min 0 min
13.04.2019 01:04 21,6 C 5,3 C 3,5 C 58 % 0 % 1021 hPa 0,0 l/m 0,0 km/h (0 Bft) 0 min 0 min
13.04.2019 01:07 21,6 C 5,2 C 3,3 C 59 % 0 % 1021 hPa 0,0 l/m 0,0 km/h (0 Bft) 0 min 0 min
13.04.2019 01:10 21,6 C 5,2 C 3,4 C 59 % 0 % 1021 hPa 0,0 l/m 0,0 km/h (0 Bft) 0 min 0 min
13.04.2019 01:13 21,6 C 5,2 C 3,4 C 59 % 0 % 1021 hPa 0,0 l/m 0,0 km/h (0 Bft) 0 min 0 min
13.04.2019 01:16 21,6 C 5,2 C 3,6 C 59 % 0 % 1021 hPa 0,0 l/m 0,0 km/h (0 Bft) 0 min 0 min
13.04.2019 01:19 21,6 C 5,2 C 3,7 C 59 % 0 % 1021 hPa 0,0 l/m 0,1 km/h (0 Bft) 0 min 0 min
13.04.2019 01:22 21,6 C 5,2 C 3,7 C 59 % 0 % 1021 hPa 0,0 l/m 0,6 km/h (0 Bft) 0 min 0 min
13.04.2019 01:25 21,6 C 5,2 C 3,7 C 59 % 0 % 1021 hPa 0,0 l/m 0,4 km/h (0 Bft) 0 min 0 min
13.04.2019 01:28 21,6 C 5,2 C 3,8 C 60 % 0 % 1021 hPa 0,0 l/m 0,3 km/h (0 Bft) 0 min 0 min
13.04.2019 01:31 21,6 C 5,1 C 3,5 C 60 % 0 % 1021 hPa 0,0 l/m 0,0 km/h (0 Bft) 0 min 0 min
13.04.2019 01:34 21,6 C 5,1 C 3,6 C 60 % 0 % 1021 hPa 0,0 l/m 0,0 km/h (0 Bft) 0 min 0 min
13.04.2019 01:37 21,6 C 5,1 C 3,7 C 60 % 0 % 1021 hPa 0,0 l/m 0,1 km/h (0 Bft) 0 min 0 min
13.04.2019 01:40 21,6 C 4,9 C 3,7 C 59 % 0 % 1021 hPa 0,0 l/m 0,3 km/h (0 Bft) 0 min 0 min
13.04.2019 01:43 21,6 C 4,9 C 3,7 C 60 % 0 % 1021 hPa 0,0 l/m 0,1 km/h (0 Bft) 0 min 0 min
13.04.2019 01:46 21,6 C 4,9 C 3,7 C 60 % 0 % 1021 hPa 0,0 l/m 0,3 km/h (0 Bft) 0 min 0 min
13.04.2019 01:49 21,6 C 4,9 C 3,7 C 60 % 0 % 1021 hPa 0,0 l/m 0,0 km/h (0 Bft) 0 min 0 min
13.04.2019 01:52 21,6 C 4,9 C 3,7 C 60 % 0 % 1021 hPa 0,0 l/m 0,0 km/h (0 Bft) 0 min 0 min
13.04.2019 01:55 21,6 C 4,9 C 3,7 C 60 % 0 % 1021 hPa 0,0 l/m 0,2 km/h (0 Bft) 0 min 0 min
13.04.2019 01:58 21,6 C 4,9 C 3,4 C 60 % 0 % 1021 hPa 0,0 l/m 3,7 km/h (1 Bft) 0 min 0 min
13.04.2019 02:01 21,6 C 4,9 C 3,4 C 60 % 0 % 1021 hPa 0,0 l/m 1,9 km/h (1 Bft) 0 min 0 min
13.04.2019 02:04 21,6 C 4,9 C 3,7 C 60 % 0 % 1021 hPa 0,0 l/m 0,0 km/h (0 Bft) 0 min 0 min
13.04.2019 02:07 21,6 C 4,8 C 3,6 C 60 % 0 % 1021 hPa 0,0 l/m 0,0 km/h (0 Bft) 0 min 0 min
13.04.2019 02:10 21,6 C 4,8 C 3,3 C 61 % 0 % 1021 hPa 0,0 l/m 0,0 km/h (0 Bft) 0 min 0 min
13.04.2019 02:13 21,6 C 4,8 C 3,4 C 61 % 0 % 1021 hPa 0,0 l/m 0,0 km/h (0 Bft) 0 min 0 min
13.04.2019 02:16 21,6 C 4,8 C 3,5 C 61 % 0 % 1021 hPa 0,0 l/m 0,0 km/h (0 Bft) 0 min 0 min
13.04.2019 02:19 21,6 C 4,7 C 3,4 C 61 % 0 % 1021 hPa 0,0 l/m 0,0 km/h (0 Bft) 0 min 0 min
13.04.2019 02:22 21,6 C 4,7 C 3,4 C 61 % 0 % 1021 hPa 0,0 l/m 0,0 km/h (0 Bft) 0 min 0 min
13.04.2019 02:25 21,6 C 4,7 C 3,5 C 61 % 0 % 1021 hPa 0,0 l/m 0,0 km/h (0 Bft) 0 min 0 min
13.04.2019 02:28 21,6 C 4,7 C 3,4 C 61 % 0 % 1021 hPa 0,0 l/m 0,0 km/h (0 Bft) 0 min 0 min
13.04.2019 02:31 21,6 C 4,7 C 3,4 C 61 % 0 % 1021 hPa 0,0 l/m 0,0 km/h (0 Bft) 0 min 0 min
13.04.2019 02:34 21,6 C 4,7 C 3,4 C 61 % 0 % 1021 hPa 0,0 l/m 0,0 km/h (0 Bft) 0 min 0 min
13.04.2019 02:37 21,5 C 4,7 C 3,5 C 61 % 0 % 1021 hPa 0,0 l/m 0,0 km/h (0 Bft) 0 min 0 min
13.04.2019 02:40 21,6 C 4,7 C 3,5 C 61 % 0 % 1021 hPa 0,0 l/m 0,0 km/h (0 Bft) 0 min 0 min
13.04.2019 02:43 21,6 C 4,7 C 3,5 C 61 % 0 % 1021 hPa 0,0 l/m 0,0 km/h (0 Bft) 0 min 0 min
13.04.2019 02:46 21,6 C 4,6 C 3,5 C 61 % 0 % 1021 hPa 0,0 l/m 0,0 km/h (0 Bft) 0 min 0 min
13.04.2019 02:49 21,6 C 4,6 C 3,5 C 62 % 0 % 1021 hPa 0,0 l/m 0,0 km/h (0 Bft) 0 min 0 min
13.04.2019 02:52 21,6 C 4,6 C 3,5 C 62 % 0 % 1021 hPa 0,0 l/m 0,3 km/h (0 Bft) 0 min 0 min
13.04.2019 02:55 21,6 C 4,6 C 3,3 C 62 % 0 % 1021 hPa 0,0 l/m 0,3 km/h (0 Bft) 0 min 0 min
13.04.2019 02:58 21,6 C 4,6 C 3,5 C 62 % 0 % 1021 hPa 0,0 l/m 0,0 km/h (0 Bft) 0 min 0 min
13.04.2019 03:01 21,6 C 4,5 C 3,4 C 62 % 0 % 1021 hPa 0,0 l/m 0,0 km/h (0 Bft) 0 min 0 min
13.04.2019 03:04 21,5 C 4,5 C 3,4 C 62 % 0 % 1021 hPa 0,0 l/m 0,0 km/h (0 Bft) 0 min 0 min
13.04.2019 03:07 21,6 C 4,5 C 3,4 C 62 % 0 % 1021 hPa 0,0 l/m 0,0 km/h (0 Bft) 0 min 0 min
13.04.2019 03:10 21,6 C 4,5 C 3,3 C 62 % 0 % 1021 hPa 0,0 l/m 0,0 km/h (0 Bft) 0 min 0 min
13.04.2019 03:13 21,6 C 4,5 C 3,4 C 62 % 0 % 1021 hPa 0,0 l/m 0,0 km/h (0 Bft) 0 min 0 min
13.04.2019 03:16 21,6 C 4,5 C 3,4 C 63 % 0 % 1021 hPa 0,0 l/m 0,0 km/h (0 Bft) 0 min 0 min
13.04.2019 03:19 21,6 C 4,5 C 3,4 C 63 % 0 % 1021 hPa 0,0 l/m 0,0 km/h (0 Bft) 0 min 0 min
13.04.2019 03:22 21,6 C 4,5 C 3,5 C 63 % 0 % 1021 hPa 0,0 l/m 0,0 km/h (0 Bft) 0 min 0 min
13.04.2019 03:25 21,5 C 4,5 C 3,4 C 64 % 0 % 1021 hPa 0,0 l/m 0,9 km/h (0 Bft) 0 min 0 min
13.04.2019 03:28 21,6 C 4,5 C 3,5 C 64 % 0 % 1021 hPa 0,0 l/m 2,4 km/h (1 Bft) 0 min 0 min
13.04.2019 03:31 21,5 C 4,5 C 3,4 C 64 % 0 % 1021 hPa 0,0 l/m 0,2 km/h (0 Bft) 0 min 0 min
13.04.2019 03:34 21,6 C 4,5 C 3,2 C 64 % 0 % 1021 hPa 0,0 l/m 2,8 km/h (1 Bft) 0 min 0 min
13.04.2019 03:37 21,6 C 4,4 C 3,3 C 64 % 0 % 1021 hPa 0,0 l/m 1,3 km/h (1 Bft) 0 min 0 min
13.04.2019 03:40 21,5 C 4,4 C 3,2 C 64 % 0 % 1021 hPa 0,0 l/m 0,6 km/h (0 Bft) 0 min 0 min
13.04.2019 03:43 21,6 C 4,4 C 3,4 C 64 % 0 % 1021 hPa 0,0 l/m 1,3 km/h (1 Bft) 0 min 0 min
13.04.2019 03:46 21,6 C 4,4 C 3,2 C 64 % 0 % 1021 hPa 0,0 l/m 1,2 km/h (1 Bft) 0 min 0 min
13.04.2019 03:49 21,6 C 4,3 C 3,2 C 64 % 0 % 1020 hPa 0,0 l/m 1,7 km/h (1 Bft) 0 min 0 min
13.04.2019 03:52 21,5 C 4,4 C 3,2 C 64 % 0 % 1020 hPa 0,0 l/m 0,0 km/h (0 Bft) 0 min 0 min
13.04.2019 03:55 21,5 C 4,3 C 3,2 C 65 % 0 % 1020 hPa 0,0 l/m 0,0 km/h (0 Bft) 0 min 0 min
13.04.2019 03:58 21,5 C 4,3 C 3,1 C 65 % 0 % 1020 hPa 0,0 l/m 0,0 km/h (0 Bft) 0 min 0 min
13.04.2019 04:01 21,5 C 4,3 C 3,1 C 65 % 0 % 1020 hPa 0,0 l/m 0,0 km/h (0 Bft) 0 min 0 min
13.04.2019 04:04 21,6 C 4,3 C 3,2 C 64 % 0 % 1020 hPa 0,0 l/m 0,0 km/h (0 Bft) 0 min 0 min
13.04.2019 04:07 21,6 C 4,3 C 3,2 C 64 % 0 % 1020 hPa 0,0 l/m 0,0 km/h (0 Bft) 0 min 0 min
13.04.2019 04:10 21,6 C 4,3 C 3,3 C 64 % 0 % 1021 hPa 0,0 l/m 0,0 km/h (0 Bft) 0 min 0 min
13.04.2019 04:13 21,6 C 4,3 C 3,3 C 64 % 0 % 1021 hPa 0,0 l/m 0,0 km/h (0 Bft) 0 min 0 min
13.04.2019 04:16 21,5 C 4,3 C 3,2 C 64 % 0 % 1020 hPa 0,0 l/m 0,0 km/h (0 Bft) 0 min 0 min
13.04.2019 04:19 21,5 C 4,3 C 3,3 C 65 % 0 % 1020 hPa 0,0 l/m 0,1 km/h (0 Bft) 0 min 0 min
13.04.2019 04:22 21,5 C 4,3 C 3,3 C 65 % 0 % 1020 hPa 0,0 l/m 1,3 km/h (1 Bft) 0 min 0 min
13.04.2019 04:25 21,6 C 4,3 C 3,3 C 66 % 0 % 1020 hPa 0,0 l/m 1,3 km/h (1 Bft) 0 min 0 min
13.04.2019 04:28 21,6 C 4,3 C 3,2 C 65 % 0 % 1020 hPa 0,0 l/m 0,0 km/h (0 Bft) 0 min 0 min
13.04.2019 04:31 21,5 C 4,3 C 3,2 C 65 % 0 % 1020 hPa 0,0 l/m 0,0 km/h (0 Bft) 0 min 0 min
13.04.2019 04:34 21,6 C 4,3 C 3,3 C 65 % 0 % 1020 hPa 0,0 l/m 0,0 km/h (0 Bft) 0 min 0 min
13.04.2019 04:37 21,5 C 4,2 C 3,1 C 65 % 0 % 1020 hPa 0,0 l/m 0,1 km/h (0 Bft) 0 min 0 min
13.04.2019 04:40 21,5 C 4,2 C 3,2 C 65 % 0 % 1020 hPa 0,0 l/m 0,1 km/h (0 Bft) 0 min 0 min
13.04.2019 04:43 21,5 C 4,2 C 3,2 C 66 % 0 % 1020 hPa 0,0 l/m 0,0 km/h (0 Bft) 0 min 0 min
13.04.2019 04:46 21,5 C 4,2 C 3,2 C 65 % 0 % 1020 hPa 0,0 l/m 0,0 km/h (0 Bft) 0 min 0 min
13.04.2019 04:49 21,5 C 4,2 C 3,1 C 65 % 0 % 1020 hPa 0,0 l/m 1,4 km/h (1 Bft) 0 min 0 min
13.04.2019 04:52 21,5 C 4,2 C 3,0 C 65 % 0 % 1020 hPa 0,0 l/m 4,6 km/h (1 Bft) 0 min 0 min
13.04.2019 04:55 21,5 C 4,2 C 3,2 C 65 % 0 % 1020 hPa 0,0 l/m 1,7 km/h (1 Bft) 0 min 0 min
13.04.2019 04:58 21,5 C 4,1 C 3,2 C 66 % 0 % 1020 hPa 0,0 l/m 0,3 km/h (0 Bft) 0 min 0 min
13.04.2019 05:01 21,5 C 4,1 C 3,2 C 66 % 0 % 1020 hPa 0,0 l/m 0,0 km/h (0 Bft) 0 min 0 min
13.04.2019 05:04 21,5 C 4,1 C 3,0 C 66 % 0 % 1020 hPa 0,0 l/m 0,1 km/h (0 Bft) 0 min 0 min
13.04.2019 05:07 21,5 C 4,2 C 2,9 C 66 % 0 % 1020 hPa 0,0 l/m 2,5 km/h (1 Bft) 0 min 0 min
13.04.2019 05:10 21,5 C 4,1 C 2,9 C 66 % 0 % 1020 hPa 0,0 l/m 2,5 km/h (1 Bft) 0 min 0 min
13.04.2019 05:13 21,5 C 4,1 C 3,1 C 66 % 0 % 1020 hPa 0,0 l/m 0,0 km/h (0 Bft) 0 min 0 min
13.04.2019 05:16 21,5 C 4,1 C 3,1 C 66 % 0 % 1020 hPa 0,0 l/m 0,1 km/h (0 Bft) 0 min 0 min
13.04.2019 05:19 21,5 C 4,1 C 3,1 C 66 % 0 % 1020 hPa 0,0 l/m 0,1 km/h (0 Bft) 0 min 0 min
13.04.2019 05:22 21,5 C 4,1 C 3,1 C 66 % 0 % 1020 hPa 0,0 l/m 0,0 km/h (0 Bft) 0 min 0 min
13.04.2019 05:25 21,5 C 4,1 C 3,2 C 67 % 0 % 1020 hPa 0,0 l/m 0,1 km/h (0 Bft) 0 min 0 min
13.04.2019 05:28 21,5 C 4,1 C 3,0 C 67 % 0 % 1020 hPa 0,0 l/m 0,9 km/h (0 Bft) 0 min 0 min
13.04.2019 05:31 21,5 C 4,1 C 2,9 C 66 % 0 % 1020 hPa 0,0 l/m 2,3 km/h (1 Bft) 0 min 0 min
13.04.2019 05:34 21,5 C 4,1 C 2,9 C 67 % 0 % 1020 hPa 0,0 l/m 0,6 km/h (0 Bft) 0 min 0 min
13.04.2019 05:37 21,5 C 4,1 C 2,9 C 66 % 0 % 1020 hPa 0,0 l/m 0,1 km/h (0 Bft) 0 min 0 min
13.04.2019 05:40 21,5 C 4,1 C 3,1 C 66 % 0 % 1020 hPa 0,0 l/m 0,0 km/h (0 Bft) 0 min 0 min
13.04.2019 05:43 21,5 C 4,1 C 3,1 C 66 % 0 % 1020 hPa 0,0 l/m 0,0 km/h (0 Bft) 0 min 0 min
13.04.2019 05:46 21,6 C 4,1 C 3,0 C 66 % 0 % 1020 hPa 0,0 l/m 0,0 km/h (0 Bft) 0 min 0 min
13.04.2019 05:49 21,5 C 4,1 C 3,0 C 66 % 0 % 1020 hPa 0,0 l/m 2,0 km/h (1 Bft) 0 min 0 min
13.04.2019 05:52 21,5 C 4,0 C 2,8 C 66 % 0 % 1020 hPa 0,0 l/m 1,3 km/h (1 Bft) 0 min 0 min
13.04.2019 05:55 21,5 C 4,0 C 2,9 C 66 % 0 % 1020 hPa 0,0 l/m 0,0 km/h (0 Bft) 0 min 0 min
13.04.2019 05:58 21,5 C 4,0 C 2,9 C 66 % 0 % 1020 hPa 0,0 l/m 0,0 km/h (0 Bft) 0 min 0 min
13.04.2019 06:01 21,5 C 4,0 C 2,7 C 67 % 0 % 1020 hPa 0,0 l/m 0,1 km/h (0 Bft) 0 min 0 min
13.04.2019 06:04 21,5 C 3,9 C 2,7 C 67 % 0 % 1020 hPa 0,0 l/m 0,7 km/h (0 Bft) 0 min 0 min
13.04.2019 06:07 21,5 C 3,9 C 2,9 C 67 % 0 % 1020 hPa 0,0 l/m 0,0 km/h (0 Bft) 0 min 0 min
13.04.2019 06:10 21,5 C 3,9 C 2,8 C 67 % 0 % 1020 hPa 0,0 l/m 0,0 km/h (0 Bft) 0 min 0 min
13.04.2019 06:13 21,5 C 3,9 C 2,8 C 67 % 0 % 1020 hPa 0,0 l/m 1,6 km/h (1 Bft) 0 min 0 min
13.04.2019 06:16 21,5 C 3,9 C 2,9 C 67 % 0 % 1020 hPa 0,0 l/m 0,0 km/h (0 Bft) 0 min 0 min
13.04.2019 06:19 21,5 C 3,9 C 2,8 C 67 % 0 % 1020 hPa 0,0 l/m 0,0 km/h (0 Bft) 0 min 0 min
13.04.2019 06:22 21,5 C 3,8 C 2,6 C 68 % 0 % 1020 hPa 0,0 l/m 1,9 km/h (1 Bft) 0 min 0 min
13.04.2019 06:25 21,6 C 3,8 C 2,5 C 68 % 0 % 1020 hPa 0,0 l/m 3,1 km/h (1 Bft) 0 min 0 min
13.04.2019 06:28 21,5 C 3,8 C 2,9 C 68 % 1 % 1020 hPa 0,0 l/m 1,6 km/h (1 Bft) 0 min 0 min
13.04.2019 06:31 21,5 C 3,8 C 2,8 C 68 % 1 % 1020 hPa 0,0 l/m 0,0 km/h (0 Bft) 0 min 0 min
13.04.2019 06:34 21,5 C 3,7 C 2,6 C 68 % 1 % 1020 hPa 0,0 l/m 0,0 km/h (0 Bft) 0 min 0 min
13.04.2019 06:37 21,6 C 3,7 C 2,8 C 68 % 1 % 1020 hPa 0,0 l/m 0,0 km/h (0 Bft) 0 min 0 min
13.04.2019 06:40 21,5 C 3,7 C 2,8 C 68 % 1 % 1020 hPa 0,0 l/m 0,0 km/h (0 Bft) 0 min 0 min
13.04.2019 06:43 21,5 C 3,7 C 2,8 C 68 % 1 % 1020 hPa 0,0 l/m 0,4 km/h (0 Bft) 0 min 0 min
13.04.2019 06:46 21,5 C 3,7 C 2,9 C 68 % 1 % 1020 hPa 0,0 l/m 0,8 km/h (0 Bft) 0 min 0 min
13.04.2019 06:49 21,5 C 3,7 C 2,6 C 68 % 2 % 1020 hPa 0,0 l/m 0,3 km/h (0 Bft) 0 min 0 min
13.04.2019 06:52 21,5 C 3,7 C 2,6 C 68 % 2 % 1020 hPa 0,0 l/m 0,0 km/h (0 Bft) 0 min 0 min
13.04.2019 06:55 21,5 C 3,7 C 2,5 C 68 % 2 % 1020 hPa 0,0 l/m 0,0 km/h (0 Bft) 0 min 0 min
13.04.2019 06:58 21,5 C 3,7 C 2,9 C 68 % 2 % 1020 hPa 0,0 l/m 0,0 km/h (0 Bft) 0 min 0 min
13.04.2019 07:01 21,5 C 3,7 C 2,9 C 68 % 3 % 1020 hPa 0,0 l/m 0,0 km/h (0 Bft) 0 min 0 min
13.04.2019 07:04 21,5 C 3,8 C 2,7 C 68 % 3 % 1020 hPa 0,0 l/m 0,0 km/h (0 Bft) 0 min 0 min
13.04.2019 07:07 21,5 C 3,8 C 2,9 C 68 % 3 % 1020 hPa 0,0 l/m 0,1 km/h (0 Bft) 0 min 0 min
13.04.2019 07:10 21,5 C 3,7 C 2,8 C 68 % 4 % 1020 hPa 0,0 l/m 1,9 km/h (1 Bft) 0 min 0 min
13.04.2019 07:13 21,5 C 3,8 C 2,8 C 68 % 4 % 1020 hPa 0,0 l/m 2,4 km/h (1 Bft) 0 min 0 min
13.04.2019 07:16 21,5 C 3,8 C 2,7 C 68 % 4 % 1020 hPa 0,0 l/m 2,5 km/h (1 Bft) 0 min 0 min
13.04.2019 07:19 21,5 C 3,7 C 2,8 C 68 % 5 % 1020 hPa 0,0 l/m 0,6 km/h (0 Bft) 0 min 0 min
13.04.2019 07:22 21,5 C 3,8 C 2,7 C 68 % 5 % 1020 hPa 0,0 l/m 0,3 km/h (0 Bft) 0 min 0 min
13.04.2019 07:25 21,6 C 3,8 C 2,5 C 67 % 5 % 1020 hPa 0,0 l/m 0,3 km/h (0 Bft) 0 min 0 min
13.04.2019 07:28 21,6 C 3,9 C 2,5 C 67 % 6 % 1020 hPa 0,0 l/m 2,2 km/h (1 Bft) 0 min 0 min
13.04.2019 07:31 21,6 C 3,9 C 2,5 C 67 % 6 % 1020 hPa 0,0 l/m 0,0 km/h (0 Bft) 0 min 0 min
13.04.2019 07:34 21,6 C 3,9 C 2,5 C 67 % 7 % 1020 hPa 0,0 l/m 0,0 km/h (0 Bft) 0 min 0 min
13.04.2019 07:37 21,6 C 3,9 C 2,9 C 67 % 7 % 1020 hPa 0,0 l/m 0,0 km/h (0 Bft) 0 min 0 min
13.04.2019 07:40 21,6 C 3,9 C 2,9 C 67 % 7 % 1020 hPa 0,0 l/m 0,0 km/h (0 Bft) 0 min 0 min
13.04.2019 07:43 21,6 C 4,0 C 2,6 C 67 % 8 % 1020 hPa 0,0 l/m 0,0 km/h (0 Bft) 0 min 0 min
13.04.2019 07:46 21,6 C 4,0 C 2,8 C 67 % 8 % 1020 hPa 0,0 l/m 0,0 km/h (0 Bft) 0 min 0 min
13.04.2019 07:49 21,6 C 4,0 C 2,8 C 67 % 9 % 1020 hPa 0,0 l/m 0,0 km/h (0 Bft) 0 min 0 min
13.04.2019 07:52 21,5 C 4,1 C 2,7 C 66 % 9 % 1020 hPa 0,0 l/m 0,0 km/h (0 Bft) 0 min 0 min
13.04.2019 07:55 21,5 C 4,1 C 2,8 C 66 % 10 % 1020 hPa 0,0 l/m 0,0 km/h (0 Bft) 0 min 0 min
13.04.2019 07:58 21,5 C 4,1 C 2,6 C 66 % 10 % 1020 hPa 0,0 l/m 0,0 km/h (0 Bft) 0 min 0 min
13.04.2019 08:01 21,6 C 4,1 C 2,5 C 66 % 11 % 1020 hPa 0,0 l/m 0,0 km/h (0 Bft) 0 min 0 min
13.04.2019 08:04 21,5 C 4,2 C 2,6 C 66 % 12 % 1020 hPa 0,0 l/m 0,1 km/h (0 Bft) 0 min 0 min
13.04.2019 08:07 21,5 C 4,2 C 2,5 C 66 % 12 % 1020 hPa 0,0 l/m 0,1 km/h (0 Bft) 0 min 0 min
13.04.2019 08:10 21,6 C 4,2 C 2,5 C 66 % 13 % 1020 hPa 0,0 l/m 0,0 km/h (0 Bft) 0 min 0 min
13.04.2019 08:13 21,6 C 4,2 C 2,6 C 66 % 13 % 1020 hPa 0,0 l/m 0,0 km/h (0 Bft) 0 min 0 min
13.04.2019 08:16 21,5 C 4,3 C 2,6 C 65 % 14 % 1020 hPa 0,0 l/m 0,0 km/h (0 Bft) 0 min 0 min
13.04.2019 08:19 21,6 C 4,3 C 2,6 C 65 % 14 % 1020 hPa 0,0 l/m 0,0 km/h (0 Bft) 0 min 0 min
13.04.2019 08:22 21,6 C 4,4 C 2,8 C 65 % 15 % 1020 hPa 0,0 l/m 0,3 km/h (0 Bft) 0 min 0 min
13.04.2019 08:25 21,6 C 4,5 C 2,8 C 66 % 16 % 1020 hPa 0,0 l/m 3,4 km/h (1 Bft) 0 min 0 min
13.04.2019 08:28 21,6 C 4,5 C 3,1 C 65 % 16 % 1020 hPa 0,0 l/m 0,1 km/h (0 Bft) 0 min 0 min
13.04.2019 08:31 21,6 C 4,7 C 2,8 C 65 % 16 % 1020 hPa 0,0 l/m 0,0 km/h (0 Bft) 0 min 0 min
13.04.2019 08:34 21,6 C 4,7 C 3,0 C 65 % 17 % 1020 hPa 0,0 l/m 2,7 km/h (1 Bft) 0 min 0 min
13.04.2019 08:37 21,5 C 4,7 C 3,0 C 64 % 18 % 1020 hPa 0,0 l/m 0,7 km/h (0 Bft) 0 min 0 min
13.04.2019 08:40 21,6 C 4,8 C 3,2 C 64 % 19 % 1020 hPa 0,0 l/m 3,5 km/h (1 Bft) 0 min 0 min
13.04.2019 08:43 21,6 C 4,9 C 3,2 C 63 % 19 % 1020 hPa 0,0 l/m 0,4 km/h (0 Bft) 0 min 0 min
13.04.2019 08:46 21,6 C 4,9 C 3,0 C 63 % 20 % 1020 hPa 0,0 l/m 2,0 km/h (1 Bft) 0 min 0 min
13.04.2019 08:49 21,6 C 5,1 C 3,0 C 62 % 21 % 1020 hPa 0,0 l/m 0,4 km/h (0 Bft) 0 min 0 min
13.04.2019 08:52 21,6 C 5,1 C 3,1 C 63 % 21 % 1020 hPa 0,0 l/m 0,5 km/h (0 Bft) 0 min 0 min
13.04.2019 08:55 21,6 C 5,2 C 3,2 C 63 % 22 % 1020 hPa 0,0 l/m 4,4 km/h (1 Bft) 0 min 0 min
13.04.2019 08:58 21,6 C 5,2 C 3,2 C 61 % 23 % 1020 hPa 0,0 l/m 0,0 km/h (0 Bft) 0 min 0 min
13.04.2019 09:01 21,6 C 5,3 C 3,1 C 62 % 24 % 1020 hPa 0,0 l/m 0,0 km/h (0 Bft) 0 min 0 min
13.04.2019 09:04 21,6 C 5,3 C 3,1 C 61 % 24 % 1020 hPa 0,0 l/m 0,5 km/h (0 Bft) 0 min 0 min
13.04.2019 09:07 21,6 C 5,3 C 3,2 C 61 % 24 % 1020 hPa 0,0 l/m 0,5 km/h (0 Bft) 0 min 0 min
13.04.2019 09:10 21,6 C 5,4 C 3,2 C 61 % 24 % 1020 hPa 0,0 l/m 0,6 km/h (0 Bft) 0 min 0 min
13.04.2019 09:13 21,6 C 5,4 C 3,3 C 61 % 27 % 1020 hPa 0,0 l/m 0,1 km/h (0 Bft) 0 min 0 min
13.04.2019 09:16 21,6 C 5,6 C 3,4 C 61 % 27 % 1020 hPa 0,0 l/m 0,3 km/h (0 Bft) 0 min 0 min
13.04.2019 09:19 21,6 C 5,6 C 3,4 C 61 % 29 % 1020 hPa 0,0 l/m 8,4 km/h (2 Bft) 0 min 0 min
13.04.2019 09:22 21,6 C 5,7 C 3,5 C 60 % 29 % 1020 hPa 0,0 l/m 4,3 km/h (1 Bft) 0 min 0 min
13.04.2019 09:25 21,6 C 5,9 C 3,5 C 59 % 30 % 1020 hPa 0,0 l/m 4,6 km/h (1 Bft) 0 min 0 min
13.04.2019 09:28 21,6 C 5,9 C 3,5 C 60 % 31 % 1020 hPa 0,0 l/m 4,8 km/h (1 Bft) 0 min 0 min
13.04.2019 09:31 21,6 C 6,0 C 3,6 C 59 % 33 % 1020 hPa 0,0 l/m 7,3 km/h (2 Bft) 0 min 0 min
13.04.2019 09:34 21,7 C 6,0 C 3,7 C 59 % 33 % 1020 hPa 0,0 l/m 10,0 km/h (2 Bft) 0 min 0 min
13.04.2019 09:37 21,7 C 6,1 C 3,8 C 59 % 35 % 1020 hPa 0,0 l/m 6,8 km/h (2 Bft) 0 min 0 min
13.04.2019 09:40 21,6 C 6,2 C 3,9 C 59 % 36 % 1020 hPa 0,0 l/m 2,2 km/h (1 Bft) 0 min 0 min
13.04.2019 09:43 21,6 C 6,4 C 3,9 C 59 % 36 % 1020 hPa 0,0 l/m 2,1 km/h (1 Bft) 0 min 0 min
13.04.2019 09:46 21,7 C 6,5 C 3,9 C 59 % 37 % 1020 hPa 0,0 l/m 6,5 km/h (2 Bft) 0 min 0 min
13.04.2019 09:49 21,7 C 6,6 C 4,1 C 59 % 38 % 1020 hPa 0,0 l/m 4,9 km/h (1 Bft) 0 min 0 min
13.04.2019 09:52 21,7 C 6,6 C 4,1 C 59 % 40 % 1020 hPa 0,0 l/m 3,9 km/h (1 Bft) 0 min 0 min
13.04.2019 09:55 21,7 C 6,8 C 4,1 C 59 % 41 % 1020 hPa 0,0 l/m 4,0 km/h (1 Bft) 0 min 0 min
13.04.2019 09:58 21,7 C 6,8 C 4,2 C 57 % 42 % 1020 hPa 0,0 l/m 1,0 km/h (0 Bft) 0 min 0 min
13.04.2019 10:01 21,7 C 6,8 C 4,3 C 57 % 42 % 1020 hPa 0,0 l/m 0,7 km/h (0 Bft) 0 min 0 min
13.04.2019 10:04 21,7 C 6,8 C 4,3 C 57 % 41 % 1020 hPa 0,0 l/m 0,4 km/h (0 Bft) 0 min 0 min
13.04.2019 10:07 21,6 C 7,0 C 4,4 C 57 % 38 % 1020 hPa 0,0 l/m 4,7 km/h (1 Bft) 0 min 0 min
13.04.2019 10:10 21,6 C 7,0 C 4,5 C 57 % 35 % 1020 hPa 0,0 l/m 7,9 km/h (2 Bft) 0 min 0 min
13.04.2019 10:13 21,6 C 6,9 C 4,3 C 56 % 36 % 1020 hPa 0,0 l/m 11,0 km/h (2 Bft) 0 min 0 min
13.04.2019 10:16 21,6 C 6,9 C 4,2 C 56 % 43 % 1020 hPa 0,0 l/m 11,0 km/h (2 Bft) 0 min 0 min
13.04.2019 10:19 21,6 C 7,1 C 4,3 C 55 % 65 % 1020 hPa 0,0 l/m 11,0 km/h (2 Bft) 3 min 0 min
13.04.2019 10:22 21,6 C 7,4 C 4,4 C 55 % 67 % 1020 hPa 0,0 l/m 5,4 km/h (1 Bft) 3 min 0 min
13.04.2019 10:25 21,7 C 7,6 C 4,5 C 54 % 69 % 1020 hPa 0,0 l/m 9,8 km/h (2 Bft) 3 min 0 min
13.04.2019 10:28 21,6 C 7,6 C 4,4 C 54 % 70 % 1020 hPa 0,0 l/m 5,8 km/h (2 Bft) 3 min 0 min
13.04.2019 10:31 21,7 C 8,0 C 4,5 C 54 % 71 % 1020 hPa 0,0 l/m 12,2 km/h (2 Bft) 3 min 0 min
13.04.2019 10:34 21,7 C 8,1 C 4,5 C 54 % 72 % 1020 hPa 0,0 l/m 9,4 km/h (2 Bft) 3 min 0 min
13.04.2019 10:37 21,7 C 8,3 C 4,6 C 54 % 73 % 1020 hPa 0,0 l/m 6,1 km/h (2 Bft) 3 min 0 min
13.04.2019 10:40 21,7 C 8,2 C 4,5 C 53 % 74 % 1020 hPa 0,0 l/m 6,1 km/h (2 Bft) 3 min 0 min
13.04.2019 10:43 21,7 C 8,3 C 4,5 C 53 % 74 % 1020 hPa 0,0 l/m 9,8 km/h (2 Bft) 3 min 0 min
13.04.2019 10:46 21,7 C 8,4 C 4,5 C 53 % 74 % 1020 hPa 0,0 l/m 8,4 km/h (2 Bft) 3 min 0 min
13.04.2019 10:49 21,7 C 8,4 C 4,5 C 52 % 76 % 1020 hPa 0,0 l/m 6,7 km/h (2 Bft) 3 min 0 min
13.04.2019 10:52 21,8 C 8,5 C 4,5 C 54 % 76 % 1020 hPa 0,0 l/m 15,3 km/h (3 Bft) 3 min 0 min
13.04.2019 10:55 21,8 C 8,8 C 4,8 C 52 % 76 % 1020 hPa 0,0 l/m 15,3 km/h (3 Bft) 3 min 0 min
13.04.2019 10:58 21,8 C 8,8 C 4,7 C 52 % 77 % 1020 hPa 0,0 l/m 4,1 km/h (1 Bft) 3 min 0 min
13.04.2019 11:01 21,8 C 8,9 C 4,9 C 51 % 77 % 1020 hPa 0,0 l/m 9,5 km/h (2 Bft) 3 min 0 min
13.04.2019 11:04 21,8 C 8,9 C 4,8 C 52 % 78 % 1020 hPa 0,0 l/m 14,6 km/h (3 Bft) 3 min 0 min
13.04.2019 11:07 21,8 C 9,0 C 4,9 C 51 % 78 % 1020 hPa 0,0 l/m 9,0 km/h (2 Bft) 3 min 0 min
13.04.2019 11:10 21,8 C 9,2 C 4,8 C 51 % 78 % 1020 hPa 0,0 l/m 12,8 km/h (3 Bft) 3 min 0 min
13.04.2019 11:13 21,8 C 9,2 C 5,0 C 51 % 78 % 1020 hPa 0,0 l/m 12,8 km/h (3 Bft) 3 min 0 min
13.04.2019 11:16 21,8 C 9,3 C 5,0 C 51 % 80 % 1020 hPa 0,0 l/m 12,8 km/h (3 Bft) 3 min 0 min
13.04.2019 11:19 21,8 C 9,4 C 5,0 C 51 % 80 % 1020 hPa 0,0 l/m 11,4 km/h (2 Bft) 3 min 0 min
13.04.2019 11:22 21,8 C 9,6 C 5,0 C 50 % 80 % 1020 hPa 0,0 l/m 11,4 km/h (2 Bft) 3 min 0 min
13.04.2019 11:25 21,8 C 9,5 C 5,2 C 49 % 80 % 1020 hPa 0,0 l/m 6,6 km/h (2 Bft) 3 min 0 min
13.04.2019 11:28 21,8 C 9,6 C 5,1 C 48 % 79 % 1020 hPa 0,0 l/m 4,5 km/h (1 Bft) 3 min 0 min
13.04.2019 11:31 21,8 C 9,6 C 5,2 C 49 % 79 % 1020 hPa 0,0 l/m 12,1 km/h (2 Bft) 3 min 0 min
13.04.2019 11:34 21,8 C 9,8 C 5,2 C 48 % 80 % 1020 hPa 0,0 l/m 14,3 km/h (3 Bft) 3 min 0 min
13.04.2019 11:37 21,7 C 9,6 C 5,1 C 47 % 80 % 1020 hPa 0,0 l/m 9,8 km/h (2 Bft) 3 min 0 min
13.04.2019 11:40 21,7 C 9,3 C 5,1 C 49 % 80 % 1020 hPa 0,0 l/m 5,2 km/h (1 Bft) 3 min 0 min
13.04.2019 11:43 21,7 C 9,6 C 5,1 C 50 % 80 % 1020 hPa 0,0 l/m 8,8 km/h (2 Bft) 3 min 0 min
13.04.2019 11:46 21,7 C 9,6 C 5,3 C 50 % 80 % 1020 hPa 0,0 l/m 11,3 km/h (2 Bft) 3 min 0 min
13.04.2019 11:49 21,6 C 10,0 C 5,2 C 48 % 80 % 1020 hPa 0,0 l/m 12,3 km/h (3 Bft) 3 min 0 min
13.04.2019 11:52 21,7 C 10,0 C 5,3 C 48 % 80 % 1020 hPa 0,0 l/m 8,9 km/h (2 Bft) 3 min 0 min
13.04.2019 11:55 21,6 C 10,1 C 5,3 C 46 % 80 % 1020 hPa 0,0 l/m 3,2 km/h (1 Bft) 3 min 0 min
13.04.2019 11:58 21,6 C 10,0 C 5,6 C 47 % 80 % 1020 hPa 0,0 l/m 8,7 km/h (2 Bft) 3 min 0 min
13.04.2019 12:01 21,7 C 10,4 C 5,7 C 48 % 80 % 1020 hPa 0,0 l/m 8,7 km/h (2 Bft) 3 min 0 min
13.04.2019 12:04 21,6 C 10,7 C 5,6 C 45 % 53 % 1020 hPa 0,0 l/m 8,5 km/h (2 Bft) 0 min 0 min
13.04.2019 12:07 21,6 C 10,3 C 5,4 C 46 % 68 % 1020 hPa 0,0 l/m 8,5 km/h (2 Bft) 3 min 0 min
13.04.2019 12:10 21,5 C 10,1 C 5,5 C 45 % 80 % 1020 hPa 0,0 l/m 6,4 km/h (2 Bft) 3 min 0 min
13.04.2019 12:13 21,4 C 10,4 C 5,6 C 45 % 80 % 1020 hPa 0,0 l/m 0,3 km/h (0 Bft) 3 min 0 min
13.04.2019 12:16 21,3 C 10,8 C 5,8 C 46 % 80 % 1020 hPa 0,0 l/m 4,2 km/h (1 Bft) 3 min 0 min
13.04.2019 12:19 21,3 C 11,2 C 5,8 C 45 % 80 % 1020 hPa 0,0 l/m 2,2 km/h (1 Bft) 3 min 0 min
13.04.2019 12:22 21,2 C 11,5 C 5,8 C 45 % 69 % 1020 hPa 0,0 l/m 3,6 km/h (1 Bft) 3 min 0 min
13.04.2019 12:25 21,2 C 11,3 C 6,0 C 42 % 80 % 1020 hPa 0,0 l/m 4,5 km/h (1 Bft) 3 min 0 min
13.04.2019 12:28 21,1 C 11,3 C 6,0 C 42 % 61 % 1020 hPa 0,0 l/m 6,2 km/h (2 Bft) 3 min 0 min
13.04.2019 12:31 21,2 C 11,0 C 5,9 C 45 % 70 % 1020 hPa 0,0 l/m 8,1 km/h (2 Bft) 3 min 0 min
13.04.2019 12:34 21,2 C 11,5 C 6,3 C 43 % 81 % 1020 hPa 0,0 l/m 7,6 km/h (2 Bft) 3 min 0 min
13.04.2019 12:37 21,3 C 11,6 C 6,1 C 42 % 80 % 1020 hPa 0,0 l/m 4,0 km/h (1 Bft) 3 min 0 min
13.04.2019 12:40 21,4 C 11,4 C 6,1 C 41 % 80 % 1019 hPa 0,0 l/m 0,1 km/h (0 Bft) 3 min 0 min
13.04.2019 12:43 21,4 C 11,4 C 6,3 C 41 % 64 % 1019 hPa 0,0 l/m 6,0 km/h (2 Bft) 3 min 0 min
13.04.2019 12:46 21,4 C 10,9 C 5,9 C 42 % 56 % 1019 hPa 0,0 l/m 3,3 km/h (1 Bft) 3 min 0 min
13.04.2019 12:49 21,4 C 10,4 C 5,9 C 43 % 51 % 1019 hPa 0,0 l/m 3,3 km/h (1 Bft) 0 min 0 min
13.04.2019 12:52 21,4 C 10,3 C 6,1 C 43 % 50 % 1019 hPa 0,0 l/m 3,3 km/h (1 Bft) 0 min 0 min
13.04.2019 12:55 21,5 C 10,1 C 5,9 C 43 % 48 % 1019 hPa 0,0 l/m 9,6 km/h (2 Bft) 0 min 0 min
13.04.2019 12:58 21,5 C 9,8 C 5,8 C 44 % 48 % 1019 hPa 0,0 l/m 8,8 km/h (2 Bft) 0 min 0 min
13.04.2019 13:01 21,5 C 9,8 C 5,9 C 44 % 48 % 1019 hPa 0,0 l/m 3,7 km/h (1 Bft) 0 min 0 min
13.04.2019 13:04 21,5 C 9,8 C 5,9 C 45 % 52 % 1019 hPa 0,0 l/m 6,7 km/h (2 Bft) 0 min 0 min
13.04.2019 13:07 21,5 C 9,9 C 5,7 C 44 % 51 % 1019 hPa 0,0 l/m 3,6 km/h (1 Bft) 0 min 0 min
13.04.2019 13:10 21,5 C 10,0 C 5,7 C 45 % 51 % 1019 hPa 0,0 l/m 0,3 km/h (0 Bft) 0 min 0 min
13.04.2019 13:13 21,6 C 10,0 C 5,8 C 44 % 50 % 1019 hPa 0,0 l/m 4,2 km/h (1 Bft) 0 min 0 min
13.04.2019 13:16 21,5 C 10,0 C 5,9 C 44 % 53 % 1019 hPa 0,0 l/m 4,3 km/h (1 Bft) 3 min 0 min
13.04.2019 13:19 21,6 C 10,0 C 5,9 C 43 % 55 % 1019 hPa 0,0 l/m 7,6 km/h (2 Bft) 3 min 0 min
13.04.2019 13:22 21,6 C 10,0 C 5,9 C 43 % 53 % 1019 hPa 0,0 l/m 1,5 km/h (1 Bft) 0 min 0 min
13.04.2019 13:25 21,6 C 10,2 C 5,9 C 43 % 54 % 1019 hPa 0,0 l/m 3,8 km/h (1 Bft) 3 min 0 min
13.04.2019 13:28 21,6 C 10,2 C 5,9 C 43 % 61 % 1019 hPa 0,0 l/m 4,6 km/h (1 Bft) 3 min 0 min
13.04.2019 13:31 21,6 C 10,2 C 6,1 C 43 % 79 % 1019 hPa 0,0 l/m 6,7 km/h (2 Bft) 3 min 0 min
13.04.2019 13:34 21,6 C 10,6 C 6,3 C 42 % 61 % 1019 hPa 0,0 l/m 1,0 km/h (0 Bft) 3 min 0 min
13.04.2019 13:37 21,7 C 10,7 C 6,5 C 43 % 61 % 1019 hPa 0,0 l/m 1,0 km/h (0 Bft) 3 min 0 min
13.04.2019 13:40 21,6 C 10,8 C 6,5 C 43 % 58 % 1019 hPa 0,0 l/m 6,4 km/h (2 Bft) 3 min 0 min
13.04.2019 13:43 21,7 C 10,8 C 6,5 C 43 % 56 % 1019 hPa 0,0 l/m 0,9 km/h (0 Bft) 3 min 0 min
13.04.2019 13:46 21,6 C 11,0 C 6,5 C 42 % 52 % 1019 hPa 0,0 l/m 4,6 km/h (1 Bft) 0 min 0 min
13.04.2019 13:49 21,6 C 10,9 C 6,5 C 42 % 50 % 1019 hPa 0,0 l/m 5,4 km/h (1 Bft) 0 min 0 min
13.04.2019 13:52 21,6 C 10,7 C 6,3 C 42 % 48 % 1019 hPa 0,0 l/m 5,4 km/h (1 Bft) 0 min 0 min
13.04.2019 13:55 21,6 C 10,6 C 6,2 C 43 % 42 % 1019 hPa 0,0 l/m 5,9 km/h (2 Bft) 0 min 0 min
13.04.2019 13:58 21,6 C 10,5 C 6,4 C 43 % 40 % 1019 hPa 0,0 l/m 1,7 km/h (1 Bft) 0 min 0 min
13.04.2019 14:01 21,6 C 10,5 C 6,6 C 43 % 37 % 1019 hPa 0,0 l/m 7,9 km/h (2 Bft) 0 min 0 min
13.04.2019 14:04 21,6 C 10,6 C 6,5 C 43 % 37 % 1019 hPa 0,0 l/m 1,3 km/h (1 Bft) 0 min 0 min
13.04.2019 14:07 21,6 C 10,4 C 6,4 C 43 % 38 % 1019 hPa 0,0 l/m 3,0 km/h (1 Bft) 0 min 0 min
13.04.2019 14:10 21,6 C 10,4 C 6,5 C 43 % 40 % 1019 hPa 0,0 l/m 0,4 km/h (0 Bft) 0 min 0 min
13.04.2019 14:13 21,7 C 10,4 C 6,5 C 42 % 44 % 1019 hPa 0,0 l/m 4,7 km/h (1 Bft) 0 min 0 min
13.04.2019 14:16 21,6 C 10,3 C 6,2 C 43 % 47 % 1019 hPa 0,0 l/m 8,9 km/h (2 Bft) 0 min 0 min
13.04.2019 14:19 21,6 C 10,3 C 6,3 C 43 % 51 % 1019 hPa 0,0 l/m 7,9 km/h (2 Bft) 0 min 0 min
13.04.2019 14:22 21,6 C 10,6 C 6,6 C 43 % 55 % 1019 hPa 0,0 l/m 4,6 km/h (1 Bft) 3 min 0 min
13.04.2019 14:25 21,6 C 10,8 C 6,5 C 42 % 58 % 1019 hPa 0,0 l/m 3,7 km/h (1 Bft) 3 min 0 min
13.04.2019 14:28 21,7 C 10,7 C 6,5 C 41 % 62 % 1019 hPa 0,0 l/m 7,0 km/h (2 Bft) 3 min 0 min
13.04.2019 14:31 21,7 C 10,7 C 6,7 C 41 % 66 % 1019 hPa 0,0 l/m 6,7 km/h (2 Bft) 3 min 0 min
13.04.2019 14:34 21,6 C 10,8 C 6,8 C 41 % 69 % 1019 hPa 0,0 l/m 3,8 km/h (1 Bft) 3 min 0 min
13.04.2019 14:37 21,6 C 10,9 C 7,0 C 41 % 73 % 1019 hPa 0,0 l/m 5,1 km/h (1 Bft) 3 min 0 min
13.04.2019 14:40 21,7 C 11,2 C 7,0 C 40 % 81 % 1019 hPa 0,0 l/m 7,2 km/h (2 Bft) 3 min 0 min
13.04.2019 14:43 21,7 C 11,6 C 7,4 C 40 % 81 % 1019 hPa 0,0 l/m 8,8 km/h (2 Bft) 3 min 0 min
13.04.2019 14:46 21,7 C 12,4 C 7,6 C 38 % 80 % 1019 hPa 0,0 l/m 8,8 km/h (2 Bft) 3 min 0 min
13.04.2019 14:49 21,7 C 12,6 C 7,5 C 38 % 80 % 1019 hPa 0,0 l/m 5,8 km/h (2 Bft) 3 min 0 min
13.04.2019 14:52 21,7 C 12,5 C 7,4 C 37 % 80 % 1018 hPa 0,0 l/m 10,5 km/h (2 Bft) 3 min 0 min
13.04.2019 14:55 21,7 C 12,4 C 7,4 C 38 % 80 % 1018 hPa 0,0 l/m 4,0 km/h (1 Bft) 3 min 0 min
13.04.2019 14:58 21,7 C 12,6 C 7,8 C 38 % 80 % 1018 hPa 0,0 l/m 5,6 km/h (1 Bft) 3 min 0 min
13.04.2019 15:01 21,8 C 12,8 C 7,8 C 38 % 64 % 1018 hPa 0,0 l/m 5,9 km/h (2 Bft) 3 min 0 min
13.04.2019 15:04 21,8 C 12,6 C 7,1 C 38 % 64 % 1018 hPa 0,0 l/m 1,2 km/h (1 Bft) 3 min 0 min
13.04.2019 15:07 21,8 C 12,2 C 7,5 C 38 % 79 % 1018 hPa 0,0 l/m 10,2 km/h (2 Bft) 3 min 0 min
13.04.2019 15:10 21,8 C 12,2 C 7,6 C 38 % 72 % 1018 hPa 0,0 l/m 9,5 km/h (2 Bft) 3 min 0 min
13.04.2019 15:13 21,8 C 12,2 C 7,9 C 39 % 81 % 1018 hPa 0,0 l/m 9,6 km/h (2 Bft) 3 min 0 min
13.04.2019 15:16 21,8 C 12,5 C 8,4 C 38 % 80 % 1018 hPa 0,0 l/m 9,3 km/h (2 Bft) 3 min 0 min
13.04.2019 15:19 21,8 C 12,9 C 9,0 C 37 % 80 % 1018 hPa 0,0 l/m 4,9 km/h (1 Bft) 3 min 0 min
13.04.2019 15:22 21,8 C 13,2 C 9,0 C 37 % 80 % 1018 hPa 0,0 l/m 0,8 km/h (0 Bft) 3 min 0 min
13.04.2019 15:25 21,8 C 13,4 C 10,8 C 37 % 80 % 1018 hPa 0,0 l/m 5,9 km/h (2 Bft) 3 min 0 min
13.04.2019 15:28 21,8 C 13,2 C 10,8 C 35 % 79 % 1018 hPa 0,0 l/m 5,9 km/h (2 Bft) 3 min 0 min
13.04.2019 15:31 21,8 C 12,9 C 10,9 C 35 % 79 % 1018 hPa 0,0 l/m 5,9 km/h (2 Bft) 3 min 0 min
13.04.2019 15:34 21,8 C 12,7 C 10,9 C 36 % 79 % 1018 hPa 0,0 l/m 4,5 km/h (1 Bft) 3 min 0 min
13.04.2019 15:37 21,8 C 12,6 C 11,0 C 37 % 79 % 1018 hPa 0,0 l/m 2,7 km/h (1 Bft) 3 min 0 min
13.04.2019 15:40 21,8 C 12,6 C 11,2 C 37 % 79 % 1018 hPa 0,0 l/m 7,3 km/h (2 Bft) 3 min 0 min
13.04.2019 15:43 21,8 C 12,2 C 11,1 C 36 % 54 % 1018 hPa 0,0 l/m 3,5 km/h (1 Bft) 3 min 0 min
13.04.2019 15:46 21,8 C 12,1 C 10,9 C 39 % 60 % 1018 hPa 0,0 l/m 0,4 km/h (0 Bft) 3 min 0 min
13.04.2019 15:49 21,8 C 12,3 C 10,9 C 39 % 60 % 1018 hPa 0,0 l/m 10,4 km/h (2 Bft) 3 min 0 min
13.04.2019 15:52 21,8 C 12,3 C 11,3 C 38 % 70 % 1018 hPa 0,0 l/m 5,3 km/h (1 Bft) 3 min 0 min
13.04.2019 15:55 21,8 C 12,2 C 10,8 C 39 % 48 % 1018 hPa 0,0 l/m 3,9 km/h (1 Bft) 0 min 0 min
13.04.2019 15:58 21,8 C 12,1 C 10,9 C 39 % 48 % 1018 hPa 0,0 l/m 0,7 km/h (0 Bft) 0 min 0 min
13.04.2019 16:01 21,8 C 12,1 C 11,0 C 39 % 54 % 1018 hPa 0,0 l/m 5,7 km/h (1 Bft) 3 min 0 min
13.04.2019 16:04 21,8 C 12,1 C 10,8 C 38 % 61 % 1018 hPa 0,0 l/m 10,6 km/h (2 Bft) 3 min 0 min
13.04.2019 16:07 21,8 C 12,0 C 10,8 C 38 % 48 % 1018 hPa 0,0 l/m 5,7 km/h (1 Bft) 0 min 0 min
13.04.2019 16:10 21,8 C 12,0 C 10,8 C 38 % 43 % 1018 hPa 0,0 l/m 6,3 km/h (2 Bft) 0 min 0 min
13.04.2019 16:13 21,8 C 11,9 C 10,6 C 39 % 42 % 1018 hPa 0,0 l/m 4,3 km/h (1 Bft) 0 min 0 min
13.04.2019 16:16 21,8 C 11,9 C 10,6 C 38 % 43 % 1018 hPa 0,0 l/m 2,7 km/h (1 Bft) 0 min 0 min
13.04.2019 16:19 21,8 C 11,8 C 10,7 C 39 % 46 % 1018 hPa 0,0 l/m 5,7 km/h (1 Bft) 0 min 0 min
13.04.2019 16:22 21,8 C 11,9 C 10,7 C 39 % 44 % 1018 hPa 0,0 l/m 6,8 km/h (2 Bft) 0 min 0 min
13.04.2019 16:25 21,8 C 11,8 C 10,6 C 38 % 45 % 1018 hPa 0,0 l/m 5,2 km/h (1 Bft) 0 min 0 min
13.04.2019 16:28 21,8 C 11,8 C 10,7 C 39 % 45 % 1018 hPa 0,0 l/m 4,3 km/h (1 Bft) 0 min 0 min
13.04.2019 16:31 21,8 C 11,8 C 10,8 C 40 % 48 % 1018 hPa 0,0 l/m 4,1 km/h (1 Bft) 0 min 0 min
13.04.2019 16:34 21,8 C 12,0 C 10,8 C 40 % 49 % 1018 hPa 0,0 l/m 3,0 km/h (1 Bft) 0 min 0 min
13.04.2019 16:37 21,8 C 12,0 C 10,8 C 38 % 50 % 1018 hPa 0,0 l/m 0,1 km/h (0 Bft) 0 min 0 min
13.04.2019 16:40 21,8 C 12,1 C 10,8 C 38 % 56 % 1018 hPa 0,0 l/m 2,3 km/h (1 Bft) 3 min 0 min
13.04.2019 16:43 21,8 C 12,2 C 10,9 C 39 % 59 % 1018 hPa 0,0 l/m 2,3 km/h (1 Bft) 3 min 0 min
13.04.2019 16:46 21,8 C 12,3 C 10,5 C 37 % 51 % 1018 hPa 0,0 l/m 10,5 km/h (2 Bft) 0 min 0 min
13.04.2019 16:49 21,8 C 12,0 C 10,6 C 38 % 46 % 1018 hPa 0,0 l/m 1,0 km/h (0 Bft) 0 min 0 min
13.04.2019 16:52 21,8 C 12,0 C 10,5 C 38 % 45 % 1018 hPa 0,0 l/m 0,1 km/h (0 Bft) 0 min 0 min
13.04.2019 16:55 21,8 C 12,0 C 10,5 C 38 % 42 % 1018 hPa 0,0 l/m 6,1 km/h (2 Bft) 0 min 0 min
13.04.2019 16:58 21,8 C 11,9 C 10,4 C 39 % 41 % 1018 hPa 0,0 l/m 0,5 km/h (0 Bft) 0 min 0 min
13.04.2019 17:01 21,8 C 11,9 C 10,3 C 39 % 41 % 1018 hPa 0,0 l/m 7,4 km/h (2 Bft) 0 min 0 min
13.04.2019 17:04 21,8 C 11,9 C 10,2 C 39 % 41 % 1018 hPa 0,0 l/m 5,5 km/h (1 Bft) 0 min 0 min
13.04.2019 17:07 21,8 C 11,8 C 10,2 C 39 % 44 % 1018 hPa 0,0 l/m 2,1 km/h (1 Bft) 0 min 0 min
13.04.2019 17:10 21,8 C 11,9 C 10,1 C 39 % 52 % 1018 hPa 0,0 l/m 0,9 km/h (0 Bft) 3 min 0 min
13.04.2019 17:13 21,8 C 11,8 C 10,0 C 39 % 57 % 1018 hPa 0,0 l/m 7,6 km/h (2 Bft) 3 min 0 min
13.04.2019 17:16 21,8 C 12,2 C 9,8 C 38 % 74 % 1018 hPa 0,0 l/m 1,2 km/h (1 Bft) 3 min 0 min
13.04.2019 17:19 21,8 C 12,2 C 9,8 C 38 % 52 % 1018 hPa 0,0 l/m 1,6 km/h (1 Bft) 3 min 0 min
13.04.2019 17:22 21,8 C 12,2 C 9,5 C 38 % 53 % 1018 hPa 0,0 l/m 9,8 km/h (2 Bft) 3 min 0 min
13.04.2019 17:25 21,8 C 12,2 C 9,3 C 38 % 42 % 1018 hPa 0,0 l/m 9,8 km/h (2 Bft) 3 min 0 min
13.04.2019 17:28 21,8 C 11,8 C 9,3 C 38 % 36 % 1018 hPa 0,0 l/m 6,1 km/h (2 Bft) 0 min 0 min
13.04.2019 17:31 21,8 C 11,7 C 9,0 C 38 % 35 % 1018 hPa 0,0 l/m 6,5 km/h (2 Bft) 0 min 0 min
13.04.2019 17:34 21,8 C 11,6 C 8,8 C 38 % 38 % 1018 hPa 0,0 l/m 0,2 km/h (0 Bft) 0 min 0 min
13.04.2019 17:37 21,8 C 11,7 C 8,7 C 39 % 38 % 1018 hPa 0,0 l/m 1,9 km/h (1 Bft) 3 min 0 min
13.04.2019 17:40 21,8 C 11,6 C 8,4 C 39 % 24 % 1018 hPa 0,0 l/m 7,8 km/h (2 Bft) 0 min 0 min
13.04.2019 17:43 21,8 C 11,5 C 8,2 C 39 % 22 % 1018 hPa 0,0 l/m 3,0 km/h (1 Bft) 0 min 0 min
13.04.2019 17:46 21,8 C 11,3 C 8,1 C 39 % 20 % 1018 hPa 0,0 l/m 0,3 km/h (0 Bft) 0 min 0 min
13.04.2019 17:49 21,8 C 11,4 C 7,7 C 40 % 18 % 1018 hPa 0,0 l/m 0,0 km/h (0 Bft) 0 min 0 min
13.04.2019 17:52 21,8 C 11,2 C 7,6 C 39 % 16 % 1018 hPa 0,0 l/m 4,5 km/h (1 Bft) 0 min 0 min
13.04.2019 17:55 21,8 C 11,1 C 7,5 C 40 % 16 % 1018 hPa 0,0 l/m 0,1 km/h (0 Bft) 0 min 0 min
13.04.2019 17:58 21,8 C 11,0 C 7,3 C 38 % 15 % 1018 hPa 0,0 l/m 0,4 km/h (0 Bft) 0 min 0 min
13.04.2019 18:01 21,8 C 10,8 C 7,3 C 39 % 15 % 1018 hPa 0,0 l/m 7,8 km/h (2 Bft) 0 min 0 min
13.04.2019 18:04 21,8 C 10,8 C 7,1 C 40 % 15 % 1018 hPa 0,0 l/m 1,0 km/h (0 Bft) 0 min 0 min
13.04.2019 18:07 21,8 C 10,8 C 7,2 C 40 % 15 % 1018 hPa 0,0 l/m 4,5 km/h (1 Bft) 0 min 0 min
13.04.2019 18:10 21,8 C 10,8 C 7,1 C 41 % 14 % 1018 hPa 0,0 l/m 5,8 km/h (2 Bft) 0 min 0 min
13.04.2019 18:13 21,8 C 10,8 C 7,0 C 39 % 13 % 1018 hPa 0,0 l/m 6,3 km/h (2 Bft) 0 min 0 min
13.04.2019 18:16 21,8 C 10,6 C 6,8 C 40 % 13 % 1018 hPa 0,0 l/m 4,6 km/h (1 Bft) 0 min 0 min
13.04.2019 18:19 21,8 C 10,5 C 6,8 C 40 % 13 % 1018 hPa 0,0 l/m 4,0 km/h (1 Bft) 0 min 0 min
13.04.2019 18:22 21,8 C 10,4 C 6,7 C 39 % 12 % 1018 hPa 0,0 l/m 5,0 km/h (1 Bft) 0 min 0 min
13.04.2019 18:25 21,8 C 10,4 C 6,8 C 39 % 13 % 1018 hPa 0,0 l/m 6,9 km/h (2 Bft) 0 min 0 min
13.04.2019 18:28 21,7 C 10,3 C 6,6 C 40 % 14 % 1018 hPa 0,0 l/m 6,4 km/h (2 Bft) 0 min 0 min
13.04.2019 18:31 21,8 C 10,3 C 6,5 C 40 % 15 % 1018 hPa 0,0 l/m 5,4 km/h (1 Bft) 0 min 0 min
13.04.2019 18:34 21,8 C 10,3 C 6,5 C 40 % 20 % 1018 hPa 0,0 l/m 4,6 km/h (1 Bft) 0 min 0 min
13.04.2019 18:37 21,7 C 10,3 C 6,5 C 40 % 21 % 1018 hPa 0,0 l/m 4,6 km/h (1 Bft) 0 min 0 min
13.04.2019 18:40 21,7 C 10,3 C 6,5 C 41 % 22 % 1018 hPa 0,0 l/m 8,7 km/h (2 Bft) 3 min 0 min
13.04.2019 18:43 21,8 C 10,3 C 6,4 C 41 % 21 % 1018 hPa 0,0 l/m 6,5 km/h (2 Bft) 3 min 0 min
13.04.2019 18:46 21,8 C 10,3 C 6,4 C 41 % 19 % 1018 hPa 0,0 l/m 4,6 km/h (1 Bft) 3 min 0 min
13.04.2019 18:49 21,7 C 10,2 C 6,2 C 41 % 16 % 1018 hPa 0,0 l/m 4,0 km/h (1 Bft) 0 min 0 min
13.04.2019 18:52 21,8 C 10,1 C 6,2 C 41 % 16 % 1018 hPa 0,0 l/m 4,2 km/h (1 Bft) 0 min 0 min
13.04.2019 18:55 21,7 C 10,0 C 6,1 C 41 % 19 % 1018 hPa 0,0 l/m 7,0 km/h (2 Bft) 3 min 0 min
13.04.2019 18:58 21,7 C 10,0 C 6,1 C 41 % 19 % 1018 hPa 0,0 l/m 7,2 km/h (2 Bft) 3 min 0 min
13.04.2019 19:01 21,8 C 9,9 C 6,1 C 42 % 18 % 1018 hPa 0,0 l/m 4,6 km/h (1 Bft) 3 min 0 min
13.04.2019 19:04 21,7 C 9,8 C 6,1 C 42 % 16 % 1018 hPa 0,0 l/m 2,4 km/h (1 Bft) 3 min 0 min
13.04.2019 19:07 21,8 C 9,9 C 6,0 C 42 % 12 % 1018 hPa 0,0 l/m 3,6 km/h (1 Bft) 0 min 0 min
13.04.2019 19:10 21,7 C 9,8 C 6,0 C 42 % 10 % 1018 hPa 0,0 l/m 5,8 km/h (2 Bft) 0 min 0 min
13.04.2019 19:13 21,7 C 9,6 C 5,9 C 42 % 9 % 1018 hPa 0,0 l/m 1,3 km/h (1 Bft) 0 min 0 min
13.04.2019 19:16 21,7 C 9,5 C 5,8 C 42 % 8 % 1018 hPa 0,0 l/m 0,5 km/h (0 Bft) 0 min 0 min
13.04.2019 19:19 21,7 C 9,4 C 5,8 C 43 % 7 % 1018 hPa 0,0 l/m 0,0 km/h (0 Bft) 0 min 0 min
13.04.2019 19:22 21,7 C 9,3 C 5,8 C 43 % 7 % 1018 hPa 0,0 l/m 0,0 km/h (0 Bft) 0 min 0 min
13.04.2019 19:25 21,7 C 9,3 C 5,7 C 43 % 6 % 1018 hPa 0,0 l/m 0,2 km/h (0 Bft) 0 min 0 min
13.04.2019 19:28 21,7 C 9,1 C 5,7 C 44 % 5 % 1018 hPa 0,0 l/m 0,3 km/h (0 Bft) 0 min 0 min
13.04.2019 19:31 21,7 C 9,0 C 5,7 C 45 % 4 % 1018 hPa 0,0 l/m 3,7 km/h (1 Bft) 0 min 0 min
13.04.2019 19:34 21,7 C 8,9 C 5,7 C 45 % 3 % 1018 hPa 0,0 l/m 0,3 km/h (0 Bft) 0 min 0 min
13.04.2019 19:37 21,7 C 8,8 C 5,5 C 46 % 3 % 1018 hPa 0,0 l/m 0,0 km/h (0 Bft) 0 min 0 min
13.04.2019 19:40 21,7 C 8,7 C 5,5 C 47 % 3 % 1018 hPa 0,0 l/m 0,0 km/h (0 Bft) 0 min 0 min
13.04.2019 19:43 21,7 C 8,6 C 5,5 C 47 % 2 % 1018 hPa 0,0 l/m 0,0 km/h (0 Bft) 3 min 0 min
13.04.2019 19:46 21,7 C 8,4 C 5,5 C 47 % 2 % 1018 hPa 0,0 l/m 0,0 km/h (0 Bft) 0 min 0 min
13.04.2019 19:49 21,6 C 8,4 C 5,5 C 48 % 1 % 1018 hPa 0,0 l/m 0,0 km/h (0 Bft) 0 min 0 min
13.04.2019 19:52 21,7 C 8,2 C 5,4 C 48 % 1 % 1018 hPa 0,0 l/m 0,1 km/h (0 Bft) 0 min 0 min
13.04.2019 19:55 21,6 C 8,2 C 5,4 C 48 % 1 % 1018 hPa 0,0 l/m 0,0 km/h (0 Bft) 0 min 0 min
13.04.2019 19:58 21,6 C 8,0 C 5,3 C 49 % 1 % 1018 hPa 0,0 l/m 0,0 km/h (0 Bft) 0 min 0 min
13.04.2019 20:01 21,6 C 7,9 C 5,1 C 50 % 1 % 1018 hPa 0,0 l/m 0,0 km/h (0 Bft) 0 min 0 min
13.04.2019 20:04 21,7 C 7,8 C 5,1 C 51 % 0 % 1018 hPa 0,0 l/m 0,0 km/h (0 Bft) 0 min 0 min
13.04.2019 20:07 21,6 C 7,8 C 5,1 C 51 % 0 % 1018 hPa 0,0 l/m 0,0 km/h (0 Bft) 0 min 0 min
13.04.2019 20:10 21,6 C 7,6 C 5,1 C 51 % 0 % 1018 hPa 0,0 l/m 0,1 km/h (0 Bft) 0 min 0 min
13.04.2019 20:13 21,7 C 7,6 C 5,0 C 51 % 0 % 1018 hPa 0,0 l/m 0,2 km/h (0 Bft) 0 min 0 min
13.04.2019 20:16 21,7 C 7,5 C 5,0 C 51 % 0 % 1018 hPa 0,0 l/m 0,0 km/h (0 Bft) 0 min 0 min
13.04.2019 20:19 21,7 C 7,4 C 5,0 C 52 % 0 % 1018 hPa 0,0 l/m 0,1 km/h (0 Bft) 0 min 0 min
13.04.2019 20:22 21,7 C 7,4 C 5,0 C 52 % 0 % 1018 hPa 0,0 l/m 0,3 km/h (0 Bft) 0 min 0 min
13.04.2019 20:25 21,7 C 7,2 C 4,9 C 52 % 0 % 1018 hPa 0,0 l/m 0,3 km/h (0 Bft) 0 min 0 min
13.04.2019 20:28 21,6 C 7,2 C 4,9 C 53 % 0 % 1018 hPa 0,0 l/m 0,3 km/h (0 Bft) 0 min 0 min
13.04.2019 20:31 21,6 C 7,1 C 4,9 C 54 % 0 % 1018 hPa 0,0 l/m 0,0 km/h (0 Bft) 0 min 0 min
13.04.2019 20:34 21,6 C 7,0 C 4,8 C 54 % 0 % 1018 hPa 0,0 l/m 0,0 km/h (0 Bft) 0 min 0 min
13.04.2019 20:37 21,6 C 6,9 C 4,8 C 54 % 0 % 1018 hPa 0,0 l/m 0,0 km/h (0 Bft) 0 min 0 min
13.04.2019 20:40 21,6 C 6,8 C 4,8 C 54 % 0 % 1018 hPa 0,0 l/m 0,0 km/h (0 Bft) 0 min 0 min
13.04.2019 20:43 21,6 C 6,8 C 4,8 C 54 % 0 % 1018 hPa 0,0 l/m 0,0 km/h (0 Bft) 0 min 0 min
13.04.2019 20:46 21,6 C 6,7 C 4,7 C 55 % 0 % 1018 hPa 0,0 l/m 0,0 km/h (0 Bft) 0 min 0 min
13.04.2019 20:49 21,7 C 6,7 C 4,6 C 55 % 0 % 1018 hPa 0,0 l/m 0,0 km/h (0 Bft) 0 min 0 min
13.04.2019 20:52 21,6 C 6,7 C 4,5 C 55 % 0 % 1018 hPa 0,0 l/m 0,9 km/h (0 Bft) 0 min 0 min
13.04.2019 20:55 21,6 C 6,7 C 4,6 C 56 % 0 % 1018 hPa 0,0 l/m 5,9 km/h (2 Bft) 0 min 0 min
13.04.2019 20:58 21,6 C 6,7 C 4,6 C 56 % 0 % 1019 hPa 0,0 l/m 11,7 km/h (2 Bft) 0 min 0 min
13.04.2019 21:01 21,6 C 7,0 C 4,5 C 55 % 0 % 1019 hPa 0,0 l/m 4,3 km/h (1 Bft) 0 min 0 min
13.04.2019 21:04 21,6 C 7,1 C 4,6 C 55 % 0 % 1019 hPa 0,0 l/m 2,4 km/h (1 Bft) 0 min 0 min
13.04.2019 21:07 21,6 C 7,2 C 4,5 C 55 % 0 % 1019 hPa 0,0 l/m 5,6 km/h (1 Bft) 0 min 0 min
13.04.2019 21:10 21,6 C 7,2 C 4,5 C 55 % 0 % 1019 hPa 0,0 l/m 4,4 km/h (1 Bft) 0 min 0 min
13.04.2019 21:13 21,6 C 7,2 C 4,6 C 55 % 0 % 1019 hPa 0,0 l/m 4,2 km/h (1 Bft) 0 min 0 min
13.04.2019 21:16 21,6 C 7,1 C 4,4 C 55 % 0 % 1019 hPa 0,0 l/m 4,2 km/h (1 Bft) 0 min 0 min
13.04.2019 21:19 21,6 C 7,0 C 4,4 C 55 % 0 % 1018 hPa 0,0 l/m 2,3 km/h (1 Bft) 0 min 0 min
13.04.2019 21:22 21,6 C 6,9 C 4,4 C 55 % 0 % 1019 hPa 0,0 l/m 4,6 km/h (1 Bft) 0 min 0 min
13.04.2019 21:25 21,6 C 6,8 C 4,3 C 55 % 0 % 1019 hPa 0,0 l/m 4,6 km/h (1 Bft) 0 min 0 min
13.04.2019 21:28 21,6 C 6,8 C 4,3 C 55 % 0 % 1019 hPa 0,0 l/m 1,0 km/h (0 Bft) 0 min 0 min
13.04.2019 21:31 21,6 C 6,8 C 4,3 C 55 % 0 % 1019 hPa 0,0 l/m 5,9 km/h (2 Bft) 0 min 0 min
13.04.2019 21:34 21,6 C 6,8 C 4,4 C 55 % 0 % 1019 hPa 0,0 l/m 3,0 km/h (1 Bft) 0 min 0 min
13.04.2019 21:37 21,6 C 6,7 C 4,2 C 55 % 0 % 1019 hPa 0,0 l/m 4,9 km/h (1 Bft) 0 min 0 min
13.04.2019 21:40 21,6 C 6,7 C 4,2 C 55 % 0 % 1019 hPa 0,0 l/m 8,4 km/h (2 Bft) 0 min 0 min
13.04.2019 21:43 21,6 C 6,5 C 4,3 C 55 % 0 % 1019 hPa 0,0 l/m 0,9 km/h (0 Bft) 0 min 0 min
13.04.2019 21:46 21,6 C 6,4 C 4,3 C 55 % 0 % 1019 hPa 0,0 l/m 0,9 km/h (0 Bft) 0 min 0 min
13.04.2019 21:49 21,6 C 6,3 C 4,1 C 56 % 0 % 1019 hPa 0,0 l/m 2,2 km/h (1 Bft) 0 min 0 min
13.04.2019 21:52 21,6 C 6,1 C 4,1 C 56 % 0 % 1019 hPa 0,0 l/m 3,1 km/h (1 Bft) 0 min 0 min
13.04.2019 21:55 21,6 C 6,0 C 3,9 C 56 % 0 % 1019 hPa 0,0 l/m 0,3 km/h (0 Bft) 0 min 0 min
13.04.2019 21:58 21,6 C 6,0 C 3,9 C 56 % 0 % 1019 hPa 0,0 l/m 1,9 km/h (1 Bft) 0 min 0 min
13.04.2019 22:01 21,6 C 5,8 C 3,9 C 56 % 0 % 1019 hPa 0,0 l/m 2,2 km/h (1 Bft) 0 min 0 min
13.04.2019 22:04 21,6 C 5,8 C 4,1 C 56 % 0 % 1019 hPa 0,0 l/m 0,3 km/h (0 Bft) 0 min 0 min
13.04.2019 22:07 21,6 C 5,6 C 4,0 C 56 % 0 % 1019 hPa 0,0 l/m 0,0 km/h (0 Bft) 0 min 0 min
13.04.2019 22:10 21,6 C 5,6 C 4,0 C 56 % 0 % 1019 hPa 0,0 l/m 0,0 km/h (0 Bft) 0 min 0 min
13.04.2019 22:13 21,6 C 5,5 C 3,9 C 57 % 0 % 1019 hPa 0,0 l/m 0,0 km/h (0 Bft) 0 min 0 min
13.04.2019 22:16 21,6 C 5,4 C 3,7 C 57 % 0 % 1019 hPa 0,0 l/m 0,0 km/h (0 Bft) 0 min 0 min
13.04.2019 22:19 21,6 C 5,3 C 3,8 C 58 % 0 % 1019 hPa 0,0 l/m 0,0 km/h (0 Bft) 0 min 0 min
13.04.2019 22:22 21,6 C 5,3 C 3,7 C 58 % 0 % 1019 hPa 0,0 l/m 0,3 km/h (0 Bft) 0 min 0 min
13.04.2019 22:25 21,6 C 5,2 C 3,7 C 58 % 0 % 1019 hPa 0,0 l/m 1,2 km/h (1 Bft) 0 min 0 min
13.04.2019 22:28 21,6 C 5,2 C 3,7 C 58 % 0 % 1019 hPa 0,0 l/m 2,0 km/h (1 Bft) 0 min 0 min
13.04.2019 22:31 21,6 C 5,2 C 3,6 C 58 % 0 % 1019 hPa 0,0 l/m 0,9 km/h (0 Bft) 0 min 0 min
13.04.2019 22:34 21,6 C 5,2 C 3,7 C 58 % 0 % 1019 hPa 0,0 l/m 1,3 km/h (1 Bft) 0 min 0 min
13.04.2019 22:37 21,6 C 5,2 C 3,7 C 58 % 0 % 1019 hPa 0,0 l/m 0,4 km/h (0 Bft) 0 min 0 min
13.04.2019 22:40 21,7 C 4,9 C 3,6 C 58 % 0 % 1019 hPa 0,0 l/m 0,0 km/h (0 Bft) 0 min 0 min
13.04.2019 22:43 21,6 C 4,8 C 3,7 C 58 % 0 % 1019 hPa 0,0 l/m 0,0 km/h (0 Bft) 0 min 0 min
13.04.2019 22:46 21,6 C 4,8 C 3,7 C 58 % 0 % 1019 hPa 0,0 l/m 0,0 km/h (0 Bft) 0 min 0 min
13.04.2019 22:49 21,7 C 4,7 C 3,3 C 59 % 0 % 1019 hPa 0,0 l/m 0,0 km/h (0 Bft) 0 min 0 min
13.04.2019 22:52 21,6 C 4,7 C 3,3 C 59 % 0 % 1019 hPa 0,0 l/m 0,0 km/h (0 Bft) 0 min 0 min
13.04.2019 22:55 21,6 C 4,7 C 3,3 C 59 % 0 % 1019 hPa 0,0 l/m 0,0 km/h (0 Bft) 0 min 0 min
13.04.2019 22:58 21,6 C 4,6 C 3,4 C 59 % 0 % 1019 hPa 0,0 l/m 0,0 km/h (0 Bft) 0 min 0 min
13.04.2019 23:01 21,6 C 4,5 C 3,2 C 60 % 0 % 1019 hPa 0,0 l/m 0,0 km/h (0 Bft) 0 min 0 min
13.04.2019 23:04 21,6 C 4,4 C 3,0 C 60 % 0 % 1019 hPa 0,0 l/m 0,0 km/h (0 Bft) 0 min 0 min
13.04.2019 23:07 21,6 C 4,4 C 3,3 C 60 % 0 % 1019 hPa 0,0 l/m 0,0 km/h (0 Bft) 0 min 0 min
13.04.2019 23:10 21,6 C 4,4 C 3,5 C 60 % 0 % 1019 hPa 0,0 l/m 0,0 km/h (0 Bft) 0 min 0 min
13.04.2019 23:13 21,6 C 4,4 C 3,2 C 60 % 0 % 1019 hPa 0,0 l/m 0,0 km/h (0 Bft) 0 min 0 min
13.04.2019 23:16 21,6 C 4,4 C 3,3 C 60 % 0 % 1019 hPa 0,0 l/m 0,0 km/h (0 Bft) 0 min 0 min
13.04.2019 23:19 21,6 C 4,4 C 3,4 C 60 % 0 % 1019 hPa 0,0 l/m 0,0 km/h (0 Bft) 0 min 0 min
13.04.2019 23:22 21,6 C 4,4 C 3,5 C 60 % 0 % 1019 hPa 0,0 l/m 0,0 km/h (0 Bft) 0 min 0 min
13.04.2019 23:25 21,6 C 4,3 C 3,5 C 60 % 0 % 1019 hPa 0,0 l/m 0,0 km/h (0 Bft) 0 min 0 min
13.04.2019 23:28 21,6 C 4,4 C 3,5 C 60 % 0 % 1019 hPa 0,0 l/m 0,0 km/h (0 Bft) 0 min 0 min
13.04.2019 23:31 21,6 C 4,3 C 3,1 C 60 % 0 % 1019 hPa 0,0 l/m 0,0 km/h (0 Bft) 0 min 0 min
13.04.2019 23:34 21,6 C 4,3 C 3,0 C 60 % 0 % 1019 hPa 0,0 l/m 0,0 km/h (0 Bft) 0 min 0 min
13.04.2019 23:37 21,6 C 4,4 C 3,1 C 60 % 0 % 1019 hPa 0,0 l/m 0,0 km/h (0 Bft) 0 min 0 min
13.04.2019 23:40 21,6 C 4,4 C 3,0 C 60 % 0 % 1019 hPa 0,0 l/m 0,3 km/h (0 Bft) 0 min 0 min
13.04.2019 23:43 21,6 C 4,4 C 3,1 C 60 % 0 % 1019 hPa 0,0 l/m 0,0 km/h (0 Bft) 0 min 0 min
13.04.2019 23:46 21,6 C 4,5 C 3,1 C 60 % 0 % 1019 hPa 0,0 l/m 0,0 km/h (0 Bft) 0 min 0 min
13.04.2019 23:49 21,6 C 4,5 C 3,3 C 60 % 0 % 1019 hPa 0,0 l/m 0,0 km/h (0 Bft) 0 min 0 min
13.04.2019 23:52 21,6 C 4,5 C 3,0 C 60 % 0 % 1019 hPa 0,0 l/m 0,0 km/h (0 Bft) 0 min 0 min
13.04.2019 23:55 21,6 C 4,5 C 2,9 C 60 % 0 % 1019 hPa 0,0 l/m 0,1 km/h (0 Bft) 0 min 0 min
13.04.2019 23:58 21,6 C 4,6 C 3,0 C 60 % 0 % 1019 hPa 0,0 l/m 0,0 km/h (0 Bft) 0 min 0 min
_ Min-Zeit 12:28 06:34 06:25 15:28 - 14:52 - 00:01 - -
Minimum _ 21,1 C 3,7 C 2,5 C 35 % - 1018 hPa - 0,0 km/h (0 Bft) - -
_ Max-Zeit 10:52 15:25 15:52 06:22 14:40 00:01 00:01 10:52 10:19 00:01
Maximum _ 21,8 C 13,4 C 11,3 C 68 % 81 % 1021 hPa 0,0 l/m 15,3 km/h
S (3 Bft)
3 min 0 min
Durchschnitt _ 21,6 C 7,3 C 4,9 C 54 % #5:24 h 1020 hPa #0,0 l/m 2,9 km/h (1 Bft) #5:24 h #0 min.